• In Italy
  • List of Countries
  • For 7 days
  • Water Temperature
  • Satellite Maps
  • Weather Map
  • Weather Widgets
  • user-avatar
    Login

    Hourly Weather Canberra

    Today, 24 October, Wednesday

    Time Temperature Precipitation Wind Pressure Humidity
    00:00 +13°C° 0 mm 1 mps 709 mmHg 82%
    01:00 +12°C° 0 mm 1 mps 709 mmHg 88%
    02:00 +11°C° 0 mm 1 mps 709 mmHg 90%
    03:00 +10°C° 0 mm 2 mps 710 mmHg 91%
    04:00 +10°C° 0 mm 2 mps 710 mmHg 92%
    05:00 +10°C° 0 mm 2 mps 711 mmHg 90%
    06:00 +10°C° 0 mm 2 mps 711 mmHg 88%
    07:00 +10°C° 0 mm 2 mps 711 mmHg 85%
    08:00 +13°C° 0 mm 2 mps 712 mmHg 78%
    09:00 +14°C° 0 mm 2 mps 712 mmHg 71%
    10:00 +16°C° 0 mm 2 mps 712 mmHg 64%
    11:00 +17°C° 0 mm 2 mps 712 mmHg 59%
    12:00 +18°C° 0 mm 2 mps 712 mmHg 54%
    13:00 +19°C° 0 mm 2 mps 712 mmHg 49%
    14:00 +19°C° 0 mm 2 mps 712 mmHg 50%
    15:00 +19°C° 0 mm 3 mps 711 mmHg 52%
    16:00 +18°C° 0 mm 3 mps 711 mmHg 53%
    17:00 +16°C° 0 mm 3 mps 711 mmHg 61%
    18:00 +13°C° 0 mm 3 mps 712 mmHg 69%
    19:00 +10°C° 0 mm 4 mps 712 mmHg 77%
    20:00 +9°C° 0 mm 3 mps 712 mmHg 79%
    21:00 +8°C° 0 mm 3 mps 713 mmHg 82%
    22:00 +8°C° 0 mm 3 mps 713 mmHg 85%
    23:00 +8°C° 0 mm 2 mps 713 mmHg 87%

    Tomorrow, 25 October, Thursday

    Time Temperature Precipitation Wind Pressure Humidity
    00:00 +8°C° 0 mm 2 mps 713 mmHg 88%
    01:00 +8°C° 0 mm 2 mps 713 mmHg 90%
    02:00 +8°C° 0 mm 2 mps 713 mmHg 91%
    03:00 +8°C° 0 mm 2 mps 712 mmHg 92%
    04:00 +10°C° 0 mm 1 mps 712 mmHg 92%
    05:00 +10°C° 0 mm 2 mps 712 mmHg 90%
    06:00 +10°C° 0 mm 2 mps 712 mmHg 87%
    07:00 +12°C° 0 mm 2 mps 712 mmHg 84%
    08:00 +14°C° 0 mm 2 mps 712 mmHg 78%
    09:00 +15°C° 0 mm 2 mps 712 mmHg 71%
    10:00 +17°C° 0 mm 2 mps 712 mmHg 64%
    11:00 +19°C° 0 mm 2 mps 711 mmHg 59%
    12:00 +20°C° 0 mm 2 mps 711 mmHg 53%
    13:00 +23°C° 0 mm 2 mps 710 mmHg 47%
    14:00 +23°C° 0 mm 2 mps 710 mmHg 47%
    15:00 +22°C° 0 mm 3 mps 709 mmHg 46%
    16:00 +22°C° 0 mm 3 mps 709 mmHg 46%
    17:00 +20°C° 0 mm 3 mps 709 mmHg 53%
    18:00 +18°C° 0 mm 2 mps 709 mmHg 61%
    19:00 +15°C° 0 mm 2 mps 709 mmHg 69%
    20:00 +14°C° 0 mm 2 mps 709 mmHg 73%
    21:00 +13°C° 0 mm 1 mps 709 mmHg 77%
    22:00 +12°C° 0 mm 1 mps 710 mmHg 82%
    23:00 +12°C° 0 mm 1 mps 710 mmHg 85%

    Day after tomorrow, 26 October, Friday

    Time Temperature Precipitation Wind Pressure Humidity
    00:00 +11°C° 0 mm 1 mps 709 mmHg 88%
    01:00 +11°C° 0 mm 1 mps 709 mmHg 92%
    02:00 +10°C° 0 mm 1 mps 709 mmHg 93%
    03:00 +10°C° 0 mm 1 mps 709 mmHg 93%
    04:00 +10°C° 0 mm 1 mps 709 mmHg 94%
    05:00 +11°C° 0 mm 1 mps 709 mmHg 87%
    06:00 +13°C° 0 mm 1 mps 710 mmHg 80%
    07:00 +13°C° 0 mm 0 mps 710 mmHg 73%
    08:00 +16°C° 0 mm 1 mps 710 mmHg 63%
    09:00 +20°C° 0 mm 1 mps 711 mmHg 52%
    10:00 +21°C° 0 mm 2 mps 711 mmHg 42%
    11:00 +21°C° 0 mm 2 mps 710 mmHg 40%
    12:00 +22°C° 0 mm 3 mps 710 mmHg 38%
    13:00 +23°C° 0 mm 4 mps 710 mmHg 35%
    14:00 +24°C° 0 mm 3 mps 709 mmHg 37%
    15:00 +22°C° 0 mm 3 mps 709 mmHg 39%
    16:00 +22°C° 0 mm 3 mps 709 mmHg 40%
    17:00 +19°C° 0 mm 3 mps 709 mmHg 50%
    18:00 +16°C° 0 mm 2 mps 709 mmHg 60%
    19:00 +13°C° 0 mm 2 mps 709 mmHg 70%
    20:00 +13°C° 0 mm 2 mps 709 mmHg 77%
    21:00 +12°C° 0 mm 2 mps 710 mmHg 84%
    22:00 +10°C° 0 mm 2 mps 710 mmHg 90%
    23:00 +10°C° 0 mm 2 mps 710 mmHg 92%

    27 October, Saturday

    Time Temperature Precipitation Wind Pressure Humidity
    00:00 +11°C° 0 mm 1 mps 710 mmHg 93%
    01:00 +11°C° 0 mm 1 mps 709 mmHg 94%
    02:00 +11°C° 0 mm 1 mps 709 mmHg 94%
    03:00 +10°C° 0 mm 1 mps 709 mmHg 95%
    04:00 +10°C° 0 mm 1 mps 708 mmHg 95%
    05:00 +11°C° 0 mm 1 mps 709 mmHg 91%
    06:00 +12°C° 0 mm 1 mps 709 mmHg 86%
    07:00 +13°C° 0 mm 1 mps 709 mmHg 82%
    08:00 +15°C° 0 mm 1 mps 709 mmHg 70%
    09:00 +18°C° 0 mm 2 mps 709 mmHg 58%
    10:00 +20°C° 0 mm 2 mps 709 mmHg 46%
    11:00 +23°C° 0 mm 2 mps 708 mmHg 42%
    12:00 +24°C° 0 mm 3 mps 708 mmHg 39%
    13:00 +25°C° 0 mm 3 mps 707 mmHg 36%
    14:00 +25°C° 0 mm 4 mps 707 mmHg 37%
    15:00 +23°C° 0 mm 4 mps 707 mmHg 39%
    16:00 +23°C° 0 mm 4 mps 706 mmHg 41%
    17:00 +20°C° 0 mm 4 mps 707 mmHg 46%
    18:00 +18°C° 0 mm 3 mps 707 mmHg 51%
    19:00 +16°C° 0 mm 3 mps 707 mmHg 56%
    20:00 +15°C° 0 mm 2 mps 707 mmHg 64%
    21:00 +13°C° 0 mm 2 mps 708 mmHg 72%
    22:00 +12°C° 0 mm 1 mps 708 mmHg 80%
    23:00 +12°C° 0 mm 1 mps 708 mmHg 84%

    28 October, Sunday

    Time Temperature Precipitation Wind Pressure Humidity
    00:00 +11°C° 0 mm 1 mps 708 mmHg 88%
    01:00 +11°C° 0 mm 1 mps 708 mmHg 93%
    02:00 +11°C° 0 mm 1 mps 708 mmHg 93%
    03:00 +11°C° 0 mm 1 mps 707 mmHg 94%
    04:00 +10°C° 0 mm 1 mps 707 mmHg 95%
    05:00 +11°C° 0 mm 1 mps 708 mmHg 91%
    06:00 +12°C° 0 mm 2 mps 708 mmHg 86%
    07:00 +13°C° 0 mm 2 mps 709 mmHg 82%
    08:00 +14°C° 0 mm 2 mps 709 mmHg 76%
    09:00 +15°C° 0 mm 2 mps 709 mmHg 69%
    10:00 +16°C° 0 mm 2 mps 709 mmHg 62%
    11:00 +17°C° 0 mm 2 mps 709 mmHg 59%
    12:00 +18°C° 0 mm 3 mps 709 mmHg 56%
    13:00 +18°C° 0 mm 3 mps 709 mmHg 53%
    14:00 +18°C° 0 mm 3 mps 708 mmHg 57%
    15:00 +17°C° 0 mm 3 mps 708 mmHg 61%
    16:00 +15°C° 0 mm 4 mps 708 mmHg 65%
    17:00 +13°C° 0 mm 3 mps 708 mmHg 71%
    18:00 +12°C° 0 mm 3 mps 709 mmHg 77%
    19:00 +10°C° 0 mm 3 mps 709 mmHg 83%
    20:00 +9°C° 0 mm 3 mps 710 mmHg 85%
    21:00 +9°C° 0 mm 3 mps 710 mmHg 87%
    22:00 +8°C° 0 mm 2 mps 710 mmHg 89%
    23:00 +8°C° 0 mm 2 mps 710 mmHg 89%

    29 October, Monday

    Time Temperature Precipitation Wind Pressure Humidity
    00:00 +8°C° 0 mm 2 mps 710 mmHg 90%
    01:00 +8°C° 0 mm 2 mps 710 mmHg 90%
    02:00 +8°C° 0 mm 2 mps 710 mmHg 92%
    03:00 +8°C° 0 mm 1 mps 710 mmHg 93%
    04:00 +8°C° 0 mm 1 mps 710 mmHg 95%
    05:00 +9°C° 0 mm 1 mps 710 mmHg 90%
    06:00 +10°C° 0 mm 1 mps 711 mmHg 85%
    07:00 +10°C° 0 mm 2 mps 711 mmHg 80%
    08:00 +13°C° 0 mm 2 mps 711 mmHg 72%
    09:00 +16°C° 0 mm 2 mps 712 mmHg 63%
    10:00 +18°C° 0 mm 2 mps 712 mmHg 54%
    11:00 +19°C° 0 mm 2 mps 711 mmHg 51%
    12:00 +20°C° 0 mm 2 mps 711 mmHg 47%
    13:00 +23°C° 0 mm 1 mps 711 mmHg 44%
    14:00 +21°C° 0 mm 2 mps 710 mmHg 46%
    15:00 +21°C° 0 mm 2 mps 710 mmHg 49%
    16:00 +20°C° 0 mm 2 mps 710 mmHg 51%
    17:00 +18°C° 0 mm 2 mps 710 mmHg 59%
    18:00 +16°C° 0 mm 2 mps 710 mmHg 67%
    19:00 +13°C° 0 mm 3 mps 711 mmHg 74%
    20:00 +13°C° 0 mm 2 mps 711 mmHg 81%
    21:00 +10°C° 0 mm 2 mps 711 mmHg 88%
    22:00 +9°C° 0 mm 2 mps 711 mmHg 94%
    23:00 +9°C° 0 mm 1 mps 711 mmHg 95%

    30 October, Tuesday

    Time Temperature Precipitation Wind Pressure Humidity
    00:00 +9°C° 0 mm 1 mps 711 mmHg 96%
    01:00 +8°C° 0 mm 1 mps 711 mmHg 97%
    02:00 +8°C° 0 mm 1 mps 711 mmHg 97%
    03:00 +8°C° 0 mm 1 mps 711 mmHg 96%
    04:00 +8°C° 0 mm 1 mps 711 mmHg 96%
    05:00 +10°C° 0 mm 1 mps 712 mmHg 89%
    06:00 +12°C° 0 mm 1 mps 712 mmHg 82%
    07:00 +14°C° 0 mm 1 mps 712 mmHg 75%
    08:00 +16°C° 0 mm 2 mps 712 mmHg 65%
    09:00 +19°C° 0 mm 3 mps 712 mmHg 55%
    10:00 +22°C° 0 mm 3 mps 713 mmHg 45%
    11:00 +23°C° 0 mm 4 mps 712 mmHg 41%
    12:00 +25°C° 0 mm 4 mps 711 mmHg 38%
    13:00 +26°C° 0 mm 4 mps 711 mmHg 34%
    14:00 +26°C° 0 mm 4 mps 711 mmHg 34%
    15:00 +26°C° 0 mm 3 mps 710 mmHg 34%
    16:00 +26°C° 0 mm 3 mps 710 mmHg 34%
    17:00 +24°C° 0 mm 2 mps 710 mmHg 42%
    18:00 +20°C° 0 mm 2 mps 710 mmHg 50%
    19:00 +18°C° 0 mm 1 mps 710 mmHg 58%
    20:00 +16°C° 0 mm 1 mps 710 mmHg 59%
    21:00 +16°C° 0 mm 1 mps 710 mmHg 61%
    22:00 +15°C° 0 mm 1 mps 710 mmHg 62%
    23:00 +14°C° 0 mm 1 mps 710 mmHg 63%
    Show more